Location: Melita
(38.4566°N, 122.6369°W)
Time: 21:27:28
(UTC+00:00)

ATLAS 2AS CENTAUR R/B - Pass Details

Date: 24 January 2020
Orbit: 929 x 1283 km, 63.7° (Epoch: 08 February)

Event Time Altitude Azimuth Distance (km) Brightness Sun altitude
Exits shadow 14:17:26 - 252° (WSW) 3,318 4.8 -12.8°
Reaches altitude 10° 14:17:39 10° 253° (WSW) 3,255 4.7 -12.8°
Maximum altitude 14:24:46 35° 316° (NW) 1,967 3.7 -11.4°
Drops below altitude 10° 14:31:55 10° 20° (NNE) 3,263 5.3 -10.1°
Sets 14:35:03 0° 29° (NNE) 4,206 6.0 -9.5°
